Theta_e
324 333 342 347 349 347 346 345 345 348 347 346 345 345 343 342 341 341 340 341 340 340 340 338 337 337 336 334 334 336 338 338 338 337 336 337 336 335 336 336 338 334 337
322 333 338 344 347 348 346 346 345 348 346 345 345 345 344 343 342 341 341 343 343 338 338 335 334 333 333 331 332 333 337 337 335 334 336 335 335 334 339 339 338 336 339
321 330 329 338 343 345 346 346 345 345 345 345 345 345 345 344 342 341 339 341 341 336 335 334 335 337 335 333 330 329 330 332 331 332 333 327 326 334 338 338 338 338 338
319 324 325 334 339 341 344 344 344 344 344 344 344 344 343 343 343 341 339 339 339 337 335 333 337 335 333 332 332 331 329 328 327 328 323 327 331 336 337 336 338 338 338
313 318 324 330 331 336 339 341 342 342 343 343 344 344 343 341 341 341 339 339 338 335 334 336 336 333 330 332 331 329 327 327 328 324 318 320 324 337 337 336 335 334 336
309 314 321 326 326 327 331 333 338 341 341 343 342 343 343 341 340 340 340 340 338 336 334 335 334 333 330 331 329 328 327 327 327 317 319 323 327 338 336 334 333 333 334
308 311 314 322 324 324 325 326 329 333 339 340 341 342 342 343 342 340 339 338 339 338 334 334 331 330 331 329 328 327 327 326 320 317 317 322 332 337 337 336 335 335 333
307 309 310 315 319 320 322 324 324 326 328 333 339 341 342 342 342 341 339 338 338 338 336 335 332 332 330 329 328 327 327 326 320 317 317 321 332 334 335 337 337 336 335
306 307 307 309 312 314 316 320 322 323 324 325 328 336 339 339 340 339 338 337 339 339 338 336 333 330 329 329 328 328 326 324 316 317 320 322 333 332 335 336 337 334 334
304 305 305 306 308 309 310 316 319 320 322 322 323 325 331 333 335 335 332 335 337 338 338 335 333 331 330 328 328 328 324 323 316 316 321 324 334 332 334 335 334 333 333
303 303 304 305 306 307 309 312 313 316 319 321 322 323 325 331 331 330 329 332 336 336 336 334 334 332 330 328 328 326 324 317 315 316 319 330 334 333 332 333 333 332 332
299 302 303 303 304 306 308 308 309 311 313 315 319 323 322 329 329 330 326 328 332 331 333 334 333 330 326 322 321 324 318 315 314 315 321 331 334 333 332 332 332 333 334
298 300 302 303 304 304 304 306 306 308 309 312 314 319 323 322 327 328 327 327 329 323 327 329 327 324 321 318 318 318 317 314 312 315 323 330 335 333 332 333 333 333 334
297 299 301 301 302 303 304 304 305 305 306 307 309 312 316 321 327 327 326 325 328 326 323 322 321 321 320 317 316 316 316 313 313 317 321 325 331 333 332 333 332 333 333
297 298 299 300 302 303 303 304 304 304 304 306 307 310 312 318 321 326 326 323 324 323 323 322 320 319 318 317 316 315 313 313 314 317 320 321 328 332 333 333 332 331 329
298 298 299 300 301 302 302 303 303 304 304 304 306 308 312 314 319 324 325 324 324 324 322 322 320 317 316 316 315 314 313 314 316 316 320 322 325 329 330 329 329 329 329
298 299 299 301 302 301 301 302 303 306 305 305 305 307 308 313 315 320 324 324 323 324 322 322 319 316 315 315 314 314 313 315 316 319 321 320 319 320 325 327 328 329 330
298 298 299 301 300 301 302 303 304 305 305 305 306 306 308 309 312 316 323 322 324 323 322 320 318 315 313 312 312 313 313 316 318 317 318 317 316 316 319 322 324 327 328
296 296 297 299 300 302 303 303 304 304 304 305 306 307 308 308 310 313 321 324 324 322 321 319 317 316 313 312 312 313 315 318 317 315 313 312 312 312 313 314 314 317 323
294 295 296 299 301 302 303 303 303 303 304 305 305 306 308 307 308 312 320 323 323 322 320 319 318 317 314 313 315 314 314 313 313 312 310 310 310 309 308 308 309 310 316
293 294 296 297 301 301 301 300 301 301 302 304 305 307 308 307 308 312 320 323 322 321 320 319 318 316 314 315 312 309 309 309 308 308 309 308 307 308 307 307 306 307 307
292 294 296 298 300 301 301 301 302 302 303 304 306 307 310 308 309 312 321 321 321 321 319 319 318 315 315 315 312 311 306 306 306 306 307 306 306 306 305 306 306 304 303
292 293 297 299 300 300 300 301 303 306 304 303 304 306 310 312 312 315 321 321 320 321 319 318 318 315 313 315 314 309 304 304 304 305 304 304 304 304 305 304 304 301 299
292 293 296 298 299 300 300 300 300 305 305 308 309 310 310 312 314 321 321 320 320 320 319 318 318 317 316 313 313 311 310 307 301 299 303 302 303 303 303 303 302 299 297
292 292 294 299 299 299 299 299 301 304 306 311 314 312 309 315 319 321 321 320 320 319 319 319 318 318 317 315 312 307 307 306 306 303 297 299 303 302 301 300 297 296 295
291 292 294 297 298 298 298 298 299 301 304 308 310 311 313 316 319 320 320 320 320 319 319 319 318 316 313 312 311 309 307 306 305 304 299 300 297 298 298 297 296 293 292
Wind_Speed
6 9 20 8 8 7 5 5 5 8 10 10 10 10 11 11 9 11 12 11 11 11 11 10 9 10 13 10 8 10 10 10 12 10 10 11 10 12 9 8 9 5 7
6 8 15 16 11 7 7 6 6 7 10 11 11 11 10 11 11 10 10 11 10 11 11 9 8 5 9 8 7 8 12 13 11 10 7 7 8 10 10 13 7 3 9
6 7 9 14 14 13 8 9 8 7 10 11 12 12 12 12 12 12 10 9 10 11 11 9 10 12 11 11 7 8 5 7 6 7 6 3 3 9 8 7 6 5 8
6 6 7 11 14 15 11 9 9 9 10 11 12 13 13 13 14 13 13 11 10 11 11 9 14 13 9 10 7 10 5 4 4 3 1 2 3 9 8 7 6 6 6
6 6 5 11 14 16 16 16 12 10 11 11 12 13 14 13 13 14 14 13 11 10 11 13 14 14 9 7 8 7 4 3 3 2 2 5 4 8 9 7 5 5 4
7 7 7 13 15 15 15 15 18 10 11 13 12 13 14 15 14 14 15 14 13 12 12 13 15 13 12 8 6 5 3 2 5 3 3 2 6 9 9 7 5 4 3
7 7 6 14 13 15 16 15 15 16 14 14 13 14 14 14 15 15 16 16 14 14 13 15 14 13 11 10 7 5 2 2 3 2 3 2 4 8 7 5 8 7 4
6 6 7 11 16 18 17 16 16 15 16 17 15 14 14 14 15 16 18 18 15 14 15 16 15 14 13 11 9 6 3 1 2 3 2 2 5 6 4 6 11 7 6
7 6 6 7 9 12 16 16 16 14 16 17 17 16 15 15 15 16 19 17 17 15 16 15 15 13 12 12 11 8 5 3 2 2 2 3 7 6 5 8 8 6 6
7 7 6 6 6 6 7 13 15 16 15 18 15 18 15 14 14 16 17 17 18 16 17 16 17 16 13 11 10 8 7 5 3 1 1 4 8 8 7 5 5 3 3
6 6 5 6 6 6 6 6 11 14 15 14 12 11 13 7 8 11 13 16 18 16 16 18 18 16 13 10 9 8 7 2 2 2 2 9 9 8 7 6 4 2 1
6 7 7 7 6 5 5 6 6 8 8 8 8 7 7 7 7 10 11 13 13 13 15 18 18 15 10 4 3 6 1 2 3 3 3 10 11 9 8 6 3 1 3
5 4 6 7 8 7 4 4 3 3 5 6 6 7 6 7 6 7 6 7 7 10 6 10 10 6 6 4 4 3 3 3 2 2 3 9 10 8 6 5 3 1 5
4 5 6 6 8 8 5 4 4 4 4 5 5 6 6 5 9 6 5 7 9 7 7 6 5 6 6 6 5 5 5 3 2 2 4 7 8 7 6 5 3 7 10
5 6 7 6 7 8 9 5 6 6 4 5 6 6 3 6 6 5 7 7 7 7 7 6 6 5 5 5 4 5 5 4 3 1 1 5 5 7 8 12 11 10 9
6 7 7 8 7 6 8 9 8 7 6 5 5 6 4 4 7 7 10 10 9 7 5 7 7 5 4 5 4 5 4 2 3 3 3 5 14 16 14 12 11 10 8
6 7 8 10 10 7 9 9 9 8 9 7 6 6 7 5 6 7 9 11 8 8 11 7 5 4 4 4 5 4 3 2 4 6 7 6 9 13 14 13 14 10 11
7 7 10 11 11 10 10 10 8 9 8 8 7 5 7 5 6 8 8 10 12 8 7 6 5 4 4 4 3 3 3 4 7 7 8 6 6 6 10 16 17 17 15
6 7 11 11 10 14 13 11 10 11 8 7 7 6 8 6 5 8 9 10 13 10 8 7 5 6 5 4 4 3 4 5 7 7 9 9 7 6 6 15 18 19 17
7 8 9 10 11 13 11 9 8 8 7 7 7 7 10 5 6 7 7 9 13 7 8 8 8 3 3 5 6 8 6 6 5 7 8 7 8 8 7 7 6 9 17
7 9 11 11 12 11 10 9 7 5 6 6 6 9 9 6 6 5 7 11 10 10 11 11 10 8 3 6 7 7 7 7 8 7 6 6 8 8 8 7 5 4 5
7 10 12 11 13 11 9 9 5 5 5 6 6 7 7 5 5 6 8 11 13 8 10 11 11 9 4 7 6 5 4 3 7 6 5 6 9 6 7 7 8 8 7
8 11 12 12 12 12 13 9 6 4 4 4 5 6 6 5 6 7 10 10 10 9 9 10 10 9 10 5 6 4 3 3 4 3 6 6 6 6 6 7 8 8 8
7 9 11 10 12 11 14 11 12 7 6 3 4 3 4 6 5 7 9 9 10 8 9 9 8 8 6 8 3 3 4 6 4 5 4 4 6 7 7 6 6 8 6
6 8 9 10 11 12 12 11 9 10 8 6 2 4 3 4 5 8 9 9 8 6 8 10 9 9 4 5 4 3 4 4 5 5 5 5 6 7 7 6 5 5 6
6 8 9 11 11 12 12 13 14 12 11 7 7 6 4 4 5 6 7 7 8 7 7 8 6 7 6 7 5 4 3 3 6 5 6 6 9 5 5 4 5 3 5
Wind_Direction
343 345 1 299 256 174 174 195 215 204 194 190 179 175 163 154 154 148 146 148 146 146 141 137 144 138 132 114 113 124 112 102 99 94 96 104 109 107 97 113 107 110 118
287 358 14 12 321 207 186 206 220 210 200 201 198 187 182 170 163 166 160 159 154 151 148 149 149 146 142 135 119 125 130 105 95 92 89 95 112 117 101 130 116 139 142
341 8 14 4 358 340 230 211 213 219 215 213 206 202 196 183 174 169 171 168 167 163 164 170 142 116 120 120 134 146 118 67 75 89 86 87 123 130 117 106 110 100 103
333 360 17 6 3 347 320 254 232 223 224 226 219 209 207 206 185 179 176 175 175 167 163 162 152 129 113 130 132 117 120 90 75 83 98 189 221 144 138 131 122 91 106
345 357 20 20 9 0 353 348 274 246 239 228 224 218 211 214 201 183 182 179 181 179 173 147 135 131 139 144 124 128 139 112 68 33 286 262 236 163 138 124 107 95 81
348 4 5 13 10 3 357 353 345 278 263 253 234 226 217 209 206 200 188 181 177 177 183 155 140 137 150 155 132 156 158 81 73 359 293 281 192 159 132 129 117 80 63
26 13 359 6 6 3 355 344 344 345 324 263 245 236 222 213 209 202 194 188 184 178 176 167 142 161 140 139 165 173 151 37 61 63 353 104 125 123 121 160 141 120 100
29 6 8 9 9 357 343 342 345 333 332 326 270 237 227 218 208 201 194 189 187 187 167 159 148 157 154 162 167 169 173 112 66 20 29 161 127 107 89 44 136 126 120
21 17 11 5 356 354 349 333 333 332 324 318 306 281 226 210 202 197 188 191 187 186 176 168 149 156 164 173 171 173 188 188 165 164 217 194 151 149 117 93 120 128 120
10 356 349 350 342 338 331 325 334 324 316 310 308 306 265 218 200 189 182 187 185 181 177 162 152 164 172 183 179 181 192 204 187 235 226 183 167 159 152 128 123 117 118
357 333 330 323 331 336 326 327 331 324 313 301 306 297 297 234 209 188 185 179 183 179 172 156 158 161 168 178 185 197 200 211 209 210 242 175 166 161 163 155 144 145 171
338 333 346 319 310 313 317 315 309 318 310 307 314 287 283 275 213 183 180 181 176 176 168 164 160 155 158 167 186 211 202 244 226 239 222 181 161 169 168 159 156 190 287
302 306 316 321 314 299 293 294 295 297 303 301 316 328 287 294 223 194 179 181 172 173 171 160 158 150 162 170 186 186 205 233 245 256 221 192 168 165 167 165 169 296 355
312 304 311 320 316 313 301 295 289 290 289 299 296 304 313 295 250 171 181 184 160 172 168 149 150 159 166 173 187 188 199 214 197 221 210 198 168 163 161 147 81 56 48
323 311 319 311 311 309 310 297 293 280 275 281 294 278 283 297 299 215 195 191 161 158 164 157 152 162 158 173 185 170 179 170 167 60 140 202 163 98 91 71 63 52 37
315 315 296 298 288 286 299 289 288 277 263 268 274 277 249 277 285 256 181 190 170 158 162 160 158 164 166 162 169 186 171 135 110 124 76 63 70 85 88 80 62 48 34
298 300 307 313 310 300 290 283 284 278 288 274 264 264 254 253 266 279 203 164 173 176 165 151 160 143 149 148 167 150 150 152 78 87 101 95 79 68 74 76 68 55 61
309 315 310 310 312 300 305 300 295 284 279 277 266 257 243 236 256 270 226 192 153 155 155 157 144 151 146 153 143 155 164 91 89 87 86 81 77 80 70 71 67 50 49
329 316 311 318 311 321 311 298 285 277 269 266 264 262 250 235 245 256 261 176 157 151 156 153 150 160 157 144 133 99 68 93 93 89 87 81 78 81 83 69 56 47 46
332 321 307 318 324 323 309 298 284 270 265 262 266 258 256 227 242 247 261 151 138 148 156 154 152 122 140 141 90 77 68 70 72 81 83 80 76 72 72 71 57 48 44
332 328 323 322 331 326 313 308 289 279 283 266 259 256 254 215 228 229 231 153 144 172 169 167 141 143 164 118 106 86 71 68 70 69 76 84 87 79 78 73 68 63 50
327 330 319 333 334 326 312 303 276 282 278 265 263 269 263 216 225 230 180 157 174 159 149 160 168 155 174 162 140 130 132 113 59 60 73 84 83 84 75 66 64 53 48
347 327 322 337 335 329 322 312 309 285 254 252 241 244 237 231 217 245 151 158 165 163 164 170 168 173 162 174 174 143 146 127 118 31 50 68 85 81 74 72 68 58 53
336 319 322 338 339 334 328 325 331 324 289 245 217 207 205 209 189 186 143 156 149 146 161 171 172 171 150 161 116 48 73 131 140 134 57 70 76 75 71 60 62 56 44
342 320 313 343 348 339 340 339 341 336 332 313 224 174 140 198 150 152 148 136 138 152 167 170 169 159 144 141 118 143 70 66 94 126 130 119 82 62 57 55 57 58 39
343 333 324 353 355 346 347 358 350 352 346 11 40 56 62 45 98 126 134 138 149 153 163 164 121 118 106 105 104 85 114 120 139 135 125 125 104 63 58 40 40 47 50